Regional Weather Roundup
Issued by NWS Northern Indiana

Home | Current Version | Previous Version | Graphics & Text | Print | Product List | Glossary On
Versions: 1 2 3 4 5 6 7 8 9 10 11 12 13 14 15 16 17 18 19 20 21 22 23 24 25 26 27 28 29 30 31 32 33 34 35 36 37 38 39 40 41 42 43 44 45 46 47 48 49 50
000
ASUS43 KIWX 221810
RWRIWX

KIWX WEATHER ROUNDUP
NATIONAL WEATHER SERVICE NORTHERN INDIANA
200 PM EDT MON MAY 22 2017

NOTE: "FAIR" INDICATES FEW OR NO CLOUDS BELOW 12,000 FEET WITH NO
SIGNIFICANT WEATHER AND/OR OBSTRUCTIONS TO VISIBILITY.

* THESE STATIONS ARE NOT UNDER NWS QUALITY CONTROL. THEY ALSO MAY NOT
  REPORT WEATHER SUCH AS PRECIPITATION OR FOG.

INZ001>027-221900-
NORTHERN INDIANA

CITY           SKY/WX    TMP DP  RH WIND       PRES   REMARKS
GARY*          MOSUNNY   70  41  35 SW14      29.99F
VALPARAISO     SUNNY     69  47  45 SW14G25   30.02F
6HR MIN TEMP:  51; 6HR MAX TEMP:  69;

MICHIGAN CITY* SUNNY     68  45  42 SW14G22   30.01F
LAPORTE*       SUNNY     66  48  51 SW15G22   30.02F
6HR MIN TEMP:  50; 6HR MAX TEMP:  66;

KNOX*          SUNNY     68  36  30 SW14      30.02F
SOUTH BEND     SUNNY     65  47  52 SW16G22   30.01F
6HR MIN TEMP:  50; 6HR MAX TEMP:  65;

ELKHART*       SUNNY     66  46  48 SW12      30.01F
GOSHEN         SUNNY     65  47  52 W14G20    30.03F
6HR MIN TEMP:  51; 6HR MAX TEMP:  65;

MONTICELLO*    SUNNY     66  46  48 SW10      30.04F
6HR MIN TEMP:  50; 6HR MAX TEMP:  67;

LOGANSPORT*    SUNNY     64  45  48 SW10      30.06F
ROCHESTER*     SUNNY     68  48  49 SW7       30.05F
WARSAW*        MOSUNNY   64  45  48 SW8G17    30.04F
ANGOLA*        MOSUNNY   64  57  77 W14       30.02S
FORT WAYNE     PTSUNNY   66  49  54 W16       30.05F
6HR MIN TEMP:  52; 6HR MAX TEMP:  66;

HUNTINGTON*    MOSUNNY   65  49  54 W9        30.05S
6HR MIN TEMP:  51; 6HR MAX TEMP:  65;

PERU/GRISSOM   SUNNY     65  49  55 SW7       30.05F
6HR MIN TEMP:  52; 6HR MAX TEMP:  65;

MARION*        SUNNY     64  46  52 W9        30.08F

$$
INZ028>050-221900-
CENTRAL INDIANA

CITY           SKY/WX    TMP DP  RH WIND       PRES   REMARKS
LAFAYETTE      SUNNY     67  48  50 SW7       30.05F
6HR MIN TEMP:  50; 6HR MAX TEMP:  67;

KOKOMO*        SUNNY     66  49  54 W9        30.07F
6HR MIN TEMP:  52; 6HR MAX TEMP:  67;

MUNCIE*        SUNNY     66  45  46 SW6       30.08F
6HR MIN TEMP:  53; 6HR MAX TEMP:  66;

INDIANAPOLIS   PTSUNNY   66  46  48 SW8       30.08F
6HR MIN TEMP:  51; 6HR MAX TEMP:  67;


$$
MIZ043>046-050>051-056>058-064>065-071>073-077>080-221900-
SOUTHWEST LOWER MICHIGAN

CITY           SKY/WX    TMP DP  RH WIND       PRES   REMARKS
BATTLE CREEK   MOSUNNY   65  44  46 SW24G30   29.99F
6HR MIN TEMP:  50; 6HR MAX TEMP:  66;

BENTON HARBOR  SUNNY     65  41  41 SW14      30.00F
6HR MIN TEMP:  52; 6HR MAX TEMP:  65;

COLDWATER*     MOSUNNY   66  46  49 W13G20    30.01F
6HR MIN TEMP:  51; 6HR MAX TEMP:  66;

HILLSDALE*     MOSUNNY   64  45  48 W12G21    30.00F
HOLLAND        SUNNY     61  44  53 SW23      29.99F
6HR MIN TEMP:  50; 6HR MAX TEMP:  61;

GRAND RAPIDS   MOSUNNY   63  44  50 W22G30    29.97S
6HR MIN TEMP:  50; 6HR MAX TEMP:  63;

KALAMAZOO      SUNNY     65  42  43 W12G23    30.01F
6HR MIN TEMP:  51; 6HR MAX TEMP:  65;

STURGIS*       SUNNY     64  46  52 W9G18     30.01F
6HR MIN TEMP:  50; 6HR MAX TEMP:  64;

THREE RIVERS*  FAIR      66  44  45 W10G18    30.01F

$$
OHZ001>008-015>018-024>025-221900-
NORTHWEST OHIO

CITY           SKY/WX    TMP DP  RH WIND       PRES   REMARKS
WAUSEON*       FAIR      68  45  42 W15G22    30.01F
DEFIANCE       SUNNY     65  44  46 W9        30.03F
6HR MIN TEMP:  50; 6HR MAX TEMP:  66;

FINDLAY        SUNNY     65  44  46 W14G23    30.04F
6HR MIN TEMP:  53; 6HR MAX TEMP:  66;

TOLEDO EXPRESS SUNNY     66  44  45 W15       30.01F
6HR MIN TEMP:  51; 6HR MAX TEMP:  66;

TOLEDO METCALF SUNNY     66  45  46 W14       30.02F
6HR MIN TEMP:  53; 6HR MAX TEMP:  67;

LIMA           SUNNY     65  49  56 W12       30.06F
6HR MIN TEMP:  51; 6HR MAX TEMP:  65;


$$
AND FOR LAKE MICHIGAN COASTAL AND OPEN LAKE BUOY OBSERVATIONS

STATION/POSITION TEMP    WIND        PRES    VSBY  WAVE
                 AIR SEA DIR/SP/G                  HT/PER
                 (F)     (DEG/KT/KT) (MB)    (MI)  (FT/S)
CALUMET HARBOR    67     210/ 12/ 15 1015.0F
MICHIGAN CITY     62     220/ 11/ 12   N/A
BURNS HARBOR      65     210/ 18/ 22 1016.3F
SOUTH LAKE BUOY   48 45  190/ 12/ 14 1015.7          2/ 4
4 MI NW BRIDGMAN  56 55  260/  6/  6 1016.3          2/ 4
MICHIGAN CITY     58 54  240/  6/  8   N/A           1/ 3

$$
&&




USA.gov is the U.S. government's official web portal to all federal, state and local government web resources and services.